Location: Newark
(42.8270°N, 8.3618°W)
Time: 11:43:27
(UTC+00:00)

ISS - Visible Passes

Search period start: 29 September 2020 00:00
Search period end: 09 October 2020 00:00
Orbit: 419 x 421 km, 51.6° (Epoch: 30 September)

Date Brightness Start Highest point End Pass type
(mag) Time Alt. Az. Time Alt. Az. Time Alt. Az.
29 Sep -1.6 19:01:22 10° NW 19:03:49 18° N 19:06:17 10° NE visible
29 Sep -1.4 20:38:08 10° NW 20:39:36 22° NNW 20:39:36 22° NNW visible
30 Sep -2.5 19:50:57 10° NW 19:53:57 29° NNE 19:54:09 28° NNE visible
01 Oct -2.1 19:03:45 10° NW 19:06:33 23° NNE 19:08:44 13° ENE visible
01 Oct -1.3 20:40:20 10° WNW 20:41:42 22° NW 20:41:42 22° NW visible
02 Oct -3.5 19:53:05 10° NW 19:56:20 56° NNE 19:56:20 56° NNE visible
03 Oct -3.0 19:05:52 10° NW 19:09:05 39° NNE 19:11:00 20° E visible
03 Oct -1.0 20:42:48 10° WNW 20:43:59 18° W 20:43:59 18° W visible
04 Oct -3.3 19:55:21 10° WNW 19:58:39 54° SW 19:58:44 54° SSW visible
05 Oct -3.8 19:08:00 10° WNW 19:11:23 89° SSW 19:13:35 20° SE visible
05 Oct -0.4 20:46:30 10° WSW 20:46:35 10° WSW 20:46:35 10° WSW visible
06 Oct -1.5 19:58:08 10° W 20:00:37 19° SW 20:01:33 17° SSW visible
07 Oct -2.1 19:10:24 10° WNW 19:13:26 31° SW 19:16:27 10° SSE visible
